This is the latest recevied weather packets stored in our database for station/object WD0REW. If no packets are shown the sender has not sent any weather packets the latest 10 day(s).
| Time | Temp. | Humidity | Pressure | Rain* | Wind** | Luminosity | Snow |
|---|---|---|---|---|---|---|---|
| 1777493203 | 18.33° C | 50% | 1018 hPa | 0 mm | - | 626 W/m² | - |
| 1777492900 | 18.89° C | 49% | 1018 hPa | 0 mm | - | 630 W/m² | - |
| 1777492597 | 18.33° C | 52% | 1018 hPa | 0 mm | - | 667 W/m² | - |
| 1777492292 | 17.78° C | 50% | 1018.3 hPa | 0 mm | - | 658 W/m² | - |
| 1777491989 | 17.78° C | 52% | 1018.4 hPa | 0 mm | - | 671 W/m² | - |
| 1777491686 | 17.78° C | 52% | 1018.4 hPa | 0 mm | - | 711 W/m² | - |
| 1777491383 | 17.78° C | 51% | 1018.4 hPa | 0 mm | - | 720 W/m² | - |
| 1777491080 | 17.78° C | 56% | 1018.5 hPa | 0 mm | - | 658 W/m² | - |
| 1777490775 | 18.33° C | 53% | 1018.5 hPa | 0 mm | - | 679 W/m² | - |
| 1777490473 | 17.78° C | 51% | 1018.8 hPa | 0 mm | - | 602 W/m² | - |
| 1777490169 | 17.22° C | 54% | 1018.7 hPa | 0 mm | - | 824 W/m² | - |
| 1777489866 | 17.22° C | 52% | 1018.6 hPa | 0 mm | - | 803 W/m² | - |
| 1777489564 | 17.78° C | 50% | 1018.5 hPa | 0 mm | - | 716 W/m² | - |
| 1777489260 | 18.33° C | 49% | 1018.6 hPa | 0 mm | - | 717 W/m² | - |
| 1777488957 | 18.33° C | 52% | 1018.4 hPa | 0 mm | - | 706 W/m² | - |
| 1777488654 | 17.78° C | 54% | 1018.6 hPa | 0 mm | - | 787 W/m² | - |
| 1777488352 | 17.78° C | 51% | 1018.7 hPa | 0 mm | - | 787 W/m² | - |
| 1777488050 | 17.22° C | 52% | 1018.6 hPa | 0 mm | - | 788 W/m² | - |
| 1777487747 | 17.22° C | 52% | 1018.9 hPa | 0 mm | - | 793 W/m² | - |
| 1777487445 | 16.67° C | 53% | 1018.7 hPa | 0 mm | - | 794 W/m² | - |
| 1777487143 | 16.67° C | 53% | 1018.8 hPa | 0 mm | - | 787 W/m² | - |
| 1777486838 | 17.22° C | 53% | 1018.9 hPa | 0 mm | - | 805 W/m² | - |
| 1777486536 | 16.67° C | 55% | 1019 hPa | 0 mm | - | 807 W/m² | - |
| 1777486233 | 16.11° C | 56% | 1019 hPa | 0 mm | - | 814 W/m² | - |
| 1777485931 | 16.67° C | 57% | 1019 hPa | 0 mm | - | 728 W/m² | - |
* Rain latest hour (hover to see other rain measurements)
** Current wind speed in m/s (hover to see current wind gust speed)